RH
29 54 63 50 43 43 73 67 68 79 95 97 87 93 91 100 97 97 92 89 91 93 93 68 72 69 56 41 44 42 39 69 60 70 72 62 64 63 66 59 59 62 61 61
31 42 53 57 43 44 57 67 63 77 95 95 90 92 91 82 91 88 91 85 88 94 98 92 81 74 65 62 36 28 39 37 72 63 64 74 70 72 70 72 72 70 57 52
23 25 54 60 44 42 45 50 51 71 75 83 93 84 85 95 98 78 97 88 93 92 96 94 78 81 75 76 58 32 32 34 32 58 61 70 74 78 79 75 72 73 63 71
20 29 47 53 52 41 36 39 60 82 73 75 77 79 67 79 96 87 90 98 95 100 98 99 76 76 74 81 76 60 32 35 33 34 64 84 81 77 76 77 73 79 69 69
24 31 42 41 47 49 36 35 46 56 62 70 79 67 82 73 72 92 90 94 91 92 89 94 73 64 70 76 81 71 58 43 30 33 42 71 82 73 85 82 70 72 68 57
30 36 36 34 42 50 39 34 41 50 53 51 59 55 66 67 60 60 77 99 94 92 89 92 88 83 77 79 85 85 81 60 41 30 34 43 75 75 82 77 79 66 61 52
30 36 34 35 39 44 44 37 35 35 35 30 48 51 47 54 54 50 58 69 91 92 92 94 92 90 76 74 75 86 90 80 58 32 31 34 52 72 73 84 83 72 71 67
28 28 33 32 28 35 45 36 32 42 33 28 42 46 45 59 50 52 76 60 71 78 92 92 71 86 90 85 81 87 89 91 80 44 45 32 40 52 72 87 88 75 85 76
24 24 28 28 27 26 34 39 34 31 34 26 35 38 39 35 39 37 46 50 58 64 81 83 73 79 88 92 89 93 88 96 95 72 84 77 57 42 50 80 72 79 93 84
31 24 26 27 26 26 22 28 32 31 32 29 29 34 34 30 36 34 40 44 55 60 66 77 80 78 83 91 85 80 82 99 98 95 91 89 90 63 47 46 64 67 72 77
34 27 25 25 25 20 25 22 21 25 25 22 25 29 37 39 32 32 35 40 47 52 57 67 72 78 82 85 88 88 88 93 86 99 98 92 93 88 53 48 49 55 55 64
36 29 30 24 28 27 21 20 22 19 25 24 24 35 34 30 29 30 34 39 47 54 60 65 69 72 73 80 91 91 99 82 85 97 92 99 100 92 58 54 44 57 71 81
37 32 30 30 29 30 24 22 22 20 18 25 24 24 29 27 27 27 32 40 50 56 63 65 64 65 66 63 65 86 90 98 92 100 95 96 88 91 76 55 50 41 58 83
37 33 32 24 22 23 32 33 26 24 19 19 23 31 27 30 32 34 35 42 52 60 62 65 66 62 64 63 55 64 87 77 76 89 100 96 99 96 84 76 51 39 44 64
44 39 33 35 33 31 31 29 26 24 19 20 21 25 47 30 37 38 45 49 56 60 61 59 60 64 67 70 68 69 80 75 77 85 71 72 78 75 84 80 73 41 34 48
50 47 46 44 41 34 39 44 35 29 29 25 31 31 26 21 25 40 47 47 49 53 57 58 59 61 63 65 65 72 76 69 74 73 68 76 80 79 81 95 84 74 40 40
52 49 46 40 44 42 34 38 39 48 48 39 28 44 28 20 20 25 32 48 50 54 56 58 55 52 56 62 66 70 76 78 69 62 74 64 69 77 73 87 89 84 65 54
48 55 47 42 46 41 50 45 47 49 52 49 43 36 34 31 32 32 38 50 51 57 58 56 55 48 52 59 61 66 70 72 82 82 86 70 68 74 68 98 98 96 76 56
52 47 45 42 44 42 49 44 48 42 44 38 35 39 33 39 45 54 60 57 55 58 62 64 61 57 51 58 64 60 59 78 83 80 84 83 66 68 67 81 82 77 74 78
43 43 38 36 36 35 48 39 42 39 42 52 36 43 48 41 60 74 57 59 58 56 56 57 63 64 64 72 73 85 97 98 87 100 100 92 71 69 73 78 82 81 75 83
44 44 40 36 33 34 48 31 29 43 56 42 43 39 39 81 78 61 65 70 64 57 54 52 58 76 89 96 99 98 96 99 99 99 100 99 89 81 83 84 81 79 72 63
48 46 43 44 40 42 37 33 45 54 51 43 44 46 49 42 62 73 59 60 59 63 56 74 97 98 99 99 100 100 100 100 100 100 100 100 100 100 94 90 86 90 89 67
66 51 63 45 49 44 28 38 36 43 45 48 48 42 40 47 55 68 70 68 68 87 94 98 99 99 98 97 97 96 87 91 90 91 92 94 89 88 87 89 97 99 100 91
62 49 59 46 51 28 29 29 38 42 44 44 43 46 49 42 49 64 65 72 68 74 92 99 91 77 60 49 48 48 47 45 43 43 47 56 56 52 53 52 52 68 86 91
53 36 55 59 57 29 32 33 30 29 29 30 34 39 41 44 43 45 58 67 77 73 68 63 57 54 53 58 59 55 50 41 35 32 29 27 28 32 34 34 32 30 29 27
36 53 54 51 61 50 61 69 30 33 34 29 28 30 39 44 45 49 54 65 76 86 72 76 79 77 72 67 64 58 51 44 43 43 40 36 29 24 22 20 17 17 19 21
Wind_Speed
20 18 23 18 15 8 8 8 10 10 14 14 19 7 8 15 29 29 24 24 23 22 22 21 18 15 15 14 14 13 13 15 14 14 12 10 9 8 8 7 5 6 6 5
18 23 20 15 12 8 12 14 11 10 15 13 16 13 10 23 24 32 29 26 23 24 21 20 18 15 13 12 12 12 14 14 15 14 12 11 11 9 6 6 6 5 5 5
20 18 18 16 14 11 10 12 12 14 16 11 14 11 9 8 27 31 28 26 24 24 21 20 17 16 14 12 11 10 15 14 14 13 12 11 11 8 9 5 6 7 6 4
18 16 20 19 18 14 11 9 8 12 13 7 13 4 21 9 8 32 31 29 30 25 23 21 20 18 16 13 9 9 11 11 12 12 13 14 10 9 8 7 7 8 7 6
15 21 19 21 19 17 3 9 8 10 9 13 13 4 13 13 9 17 29 28 26 25 24 24 20 19 16 15 11 10 10 11 11 12 12 12 11 10 9 7 6 7 7 8
8 16 16 19 17 17 7 10 8 10 10 8 12 7 12 11 15 11 24 28 28 28 26 24 20 18 21 18 14 12 9 9 10 12 12 11 11 9 9 6 5 6 7 7
14 14 16 19 19 16 15 16 10 8 8 3 14 10 7 16 14 19 22 27 30 27 29 28 28 26 24 20 17 14 12 10 9 11 13 12 12 11 8 7 6 7 7 6
19 20 20 19 22 19 24 22 13 8 11 8 10 8 7 14 11 11 21 24 30 31 27 28 30 28 27 25 21 19 16 14 12 12 12 13 13 13 11 10 8 10 7 7
19 17 18 15 21 17 21 27 22 13 6 14 16 10 8 13 20 15 9 20 23 27 30 31 31 28 23 25 25 25 22 19 16 17 13 11 12 14 15 11 10 10 10 9
9 17 15 21 16 21 15 23 25 19 12 12 9 13 11 16 14 10 15 14 20 25 28 28 29 29 28 29 27 29 26 26 22 21 19 17 13 14 17 17 16 14 14 10
8 12 15 18 24 21 23 17 28 26 26 12 12 16 15 11 14 14 13 15 19 26 26 28 26 24 24 29 30 25 32 32 26 24 21 20 18 16 17 20 19 17 17 15
14 11 13 22 15 19 24 23 24 24 23 22 19 2 15 19 20 13 12 18 20 22 21 22 23 20 17 17 24 23 23 29 34 32 29 25 24 18 17 20 22 19 16 15
17 11 12 12 13 18 20 23 22 22 24 25 21 12 8 16 23 20 15 19 22 25 25 24 22 23 19 14 9 17 13 22 26 31 32 30 26 24 20 19 23 23 20 18
15 10 15 17 22 20 18 18 22 21 22 18 21 14 6 6 15 16 15 16 22 24 23 22 24 24 22 19 15 17 16 14 14 30 29 14 30 26 32 22 23 25 23 21
7 6 12 6 10 12 14 17 20 22 21 16 12 17 4 9 10 9 10 13 16 18 20 21 21 23 23 21 18 22 20 14 13 12 2 7 7 9 21 30 22 24 24 24
5 6 9 9 9 9 10 9 12 14 14 15 12 8 15 15 11 8 9 12 14 15 18 20 21 21 21 21 20 22 24 20 20 18 12 10 13 14 16 26 27 21 24 24
9 14 10 13 8 8 10 8 8 7 6 10 14 12 18 21 20 18 16 15 15 16 16 17 17 19 21 23 23 25 27 25 23 17 9 12 16 16 13 16 35 28 22 21
11 12 16 14 4 9 4 8 6 7 6 4 9 13 15 17 21 23 23 22 20 20 19 19 19 18 18 21 22 23 25 26 26 23 21 16 17 13 6 10 18 31 28 27
8 12 9 8 21 4 3 7 6 7 5 6 5 6 13 11 14 18 19 19 18 19 19 19 19 19 17 17 20 21 21 21 23 24 23 22 21 17 11 10 13 17 20 24
4 6 9 9 9 9 6 7 7 7 8 8 7 4 8 10 5 13 15 14 15 16 18 19 21 22 21 21 25 26 20 17 19 27 27 26 24 23 19 17 16 18 18 18
7 6 9 10 9 5 5 9 9 7 4 7 13 11 7 8 18 13 14 14 15 17 17 16 15 16 17 15 15 15 19 20 19 20 23 26 26 26 25 24 23 20 19 14
6 6 8 7 7 6 9 9 7 9 10 8 9 13 12 11 10 10 13 13 12 13 13 14 14 14 17 17 18 18 17 20 20 24 24 24 24 19 20 21 26 27 26 25
5 8 6 7 6 10 9 13 12 14 12 10 12 10 10 13 14 12 13 14 14 15 15 16 16 15 14 12 13 16 17 14 14 14 13 15 16 18 19 20 21 19 22 25
11 11 8 8 10 9 9 8 10 13 14 14 14 13 13 13 14 15 13 13 14 16 20 20 19 18 16 14 12 11 11 11 13 15 17 18 19 20 20 21 21 21 22 24
10 11 11 10 11 11 13 14 15 15 15 15 15 15 16 18 17 18 20 18 17 18 19 19 19 18 18 18 18 17 17 16 16 17 17 20 22 25 25 25 26 26 26 27
12 10 11 7 8 9 7 10 13 13 13 14 13 14 14 14 17 20 22 22 19 23 24 23 22 22 22 21 20 21 21 21 20 20 20 20 22 24 25 26 28 30 31 31
Wind_Direction
192 190 197 198 196 231 206 220 186 173 199 171 167 168 173 205 178 177 180 176 176 173 168 158 149 143 140 142 149 149 152 153 149 150 146 156 155 150 153 153 165 166 162 158
190 205 201 200 202 197 194 207 161 144 164 184 169 170 159 173 186 185 181 182 175 172 179 171 157 149 143 140 146 157 164 161 164 163 176 167 171 163 170 185 193 192 177 155
202 210 202 200 197 190 193 202 185 182 179 159 178 188 195 195 190 186 187 189 185 188 182 182 175 163 154 143 140 144 169 171 168 173 178 172 167 181 182 184 210 203 204 203
211 208 209 201 204 195 195 182 172 174 172 168 176 215 211 241 249 192 193 194 200 196 199 201 188 182 170 161 153 149 158 175 175 172 173 169 169 162 169 172 193 207 205 203
205 207 200 203 206 202 179 174 173 179 175 158 180 206 188 198 242 206 198 203 200 198 199 197 185 182 175 175 165 159 167 169 180 181 177 186 177 168 165 172 164 187 200 198
228 205 201 201 199 198 210 176 171 176 183 200 179 160 162 191 176 222 208 204 201 203 200 199 197 192 182 182 186 186 175 172 180 187 188 186 189 182 183 186 193 196 198 199
203 196 193 189 196 198 192 183 168 200 204 239 177 208 145 197 203 237 216 211 206 200 206 207 205 203 197 195 199 203 197 181 186 189 190 188 190 196 197 186 190 189 202 209
194 189 194 197 200 205 203 199 201 185 221 173 156 224 188 202 191 193 209 206 211 208 205 204 210 212 209 212 216 216 215 204 190 191 193 193 197 198 208 205 197 207 215 216
205 214 203 206 200 201 206 213 213 269 242 233 179 206 231 227 216 229 209 205 200 202 210 215 217 217 226 220 219 228 225 209 199 193 203 206 208 213 213 211 228 209 217 212
208 213 211 212 202 212 221 217 211 219 236 230 181 204 219 225 208 197 200 194 201 200 206 214 223 224 226 234 229 222 230 216 210 206 211 214 221 225 225 220 222 227 221 223
203 213 189 192 205 202 203 215 215 227 230 237 228 206 218 214 216 226 211 204 200 204 206 206 214 226 232 237 245 241 223 220 215 217 214 224 227 237 235 229 229 229 240 228
198 218 190 204 204 213 213 211 211 220 218 234 279 151 195 227 234 229 224 218 207 204 202 198 209 216 227 236 250 258 270 217 223 226 217 228 234 237 247 236 231 233 235 233
206 211 184 192 204 213 206 208 213 218 231 213 230 232 216 233 234 234 230 216 206 200 200 196 193 197 202 218 255 243 242 214 217 222 226 225 231 230 239 239 234 233 236 235
189 214 228 213 203 197 200 208 208 214 220 232 213 221 213 234 230 227 230 215 206 202 202 205 199 206 209 207 219 226 218 209 232 234 242 268 237 246 234 236 235 234 235 240
158 179 198 148 152 180 202 204 208 214 228 232 209 209 193 230 240 236 223 204 203 204 204 208 212 210 218 221 222 219 203 203 206 201 226 291 254 236 231 230 234 237 235 238
195 163 144 128 132 155 168 180 194 206 213 224 234 219 230 252 249 237 209 201 209 213 215 218 221 219 228 222 221 217 202 203 213 224 231 252 282 269 259 233 222 236 238 235
231 180 192 154 142 164 168 139 175 177 184 206 223 221 237 234 238 239 234 217 211 209 214 213 218 228 228 215 216 217 214 214 213 223 227 240 259 256 266 247 226 230 236 238
205 187 187 220 219 219 135 161 143 145 121 170 221 226 227 239 235 232 228 217 215 216 220 224 228 229 223 221 220 220 222 225 227 231 230 232 242 236 258 219 219 228 230 241
164 185 202 210 208 179 182 197 188 201 206 235 236 231 234 240 239 222 218 221 224 227 230 232 230 227 219 215 218 225 227 223 230 235 233 226 216 219 225 227 237 239 241 251
186 192 205 209 236 213 122 216 219 217 215 231 212 165 187 198 188 238 228 232 233 236 240 243 243 243 233 218 216 220 212 221 227 223 229 223 220 225 229 245 260 260 265 262
213 215 221 205 217 222 212 228 228 221 176 203 204 210 188 177 204 217 203 210 221 230 235 239 230 227 229 227 216 211 222 223 229 223 225 224 228 231 238 244 251 247 259 258
230 227 217 218 229 228 225 223 196 216 193 176 196 221 219 214 215 212 207 204 215 222 235 221 205 198 204 207 203 209 206 205 211 205 214 214 225 233 250 252 255 258 241 240
225 208 210 207 228 230 240 230 229 225 233 221 222 225 228 223 220 212 213 218 218 215 205 198 194 188 195 185 182 196 212 223 233 241 234 232 231 233 239 241 239 243 242 244
232 224 215 226 239 236 236 227 232 238 243 246 242 240 245 246 238 224 223 221 222 223 212 198 196 193 195 202 207 212 219 228 238 240 245 247 251 249 248 248 247 246 245 249
223 229 223 224 240 236 239 243 248 250 253 252 253 254 247 243 243 244 237 235 223 217 213 209 208 209 211 215 224 235 242 247 249 255 253 254 255 257 256 256 257 257 256 256
241 230 221 220 233 231 224 230 246 250 256 258 257 255 249 242 240 242 242 236 233 226 223 222 225 228 231 235 241 248 253 259 264 269 269 266 263 261 264 262 260 258 258 259